EWG92K EDDL-LEPA

Flight info

Callsign EWG92K
Flight time N/A
Altitude 24000
Route MODRU7Z MODRU Z283 LNO/N0447F330 Z283 SOPOK DCT ROUSY DCT GTQ DCT POGOL DCT LASAT/N0446F350 DCT MOROK DCT GILIR DCT GEVEA DCT INCUS DCT BALSI DCT RETNO DCT TUPOX DCT MTG DCT DIVKO DCT VATIR DCT PIVUS DCT BODEQ DCT VERSO DCT LUNIK
Aircraft A321/M-SDE3FGHIRWY/LB1

Departure

Time 2026-04-30 14:49
Airport Düsseldorf Airport (EDDL)

Arrival

Time N/A
Airport Palma de Mallorca Airport (LEPA)
Time Latitude Longitude Altitude Speed Heading
2026-04-30 14:49 51.44798 6.93115 6144 ft 282 kts 14°
2026-04-30 14:49 51.46785 6.93473 6870 ft 289 kts
2026-04-30 14:49 51.48732 6.92696 7526 ft 300 kts 336°
2026-04-30 14:50 51.51367 6.87562 8851 ft 310 kts 291°
2026-04-30 14:50 51.52141 6.84315 9534 ft 312 kts 291°
2026-04-30 14:51 51.53204 6.77558 10683 ft 322 kts 266°
2026-04-30 14:51 51.52653 6.74008 10808 ft 337 kts 240°
2026-04-30 14:51 51.49236 6.68636 11131 ft 360 kts 213°
2026-04-30 14:52 51.47198 6.66234 11578 ft 366 kts 213°
2026-04-30 14:52 51.43057 6.61336 12641 ft 373 kts 213°
2026-04-30 14:52 51.40960 6.58844 13176 ft 377 kts 213°
2026-04-30 14:53 51.36712 6.53801 14237 ft 383 kts 214°
2026-04-30 14:53 51.34580 6.51207 14723 ft 386 kts 216°
2026-04-30 14:54 51.30377 6.45769 15621 ft 392 kts 217°
2026-04-30 14:54 51.26166 6.40217 16537 ft 397 kts 217°
2026-04-30 14:55 51.21855 6.34616 17487 ft 402 kts 216°
2026-04-30 14:55 51.19668 6.31811 17968 ft 405 kts 216°
2026-04-30 14:55 51.15233 6.26150 18883 ft 412 kts 216°
2026-04-30 14:56 51.10719 6.20409 19757 ft 417 kts 216°
2026-04-30 14:56 51.06152 6.14613 20641 ft 422 kts 216°
2026-04-30 14:57 51.03858 6.11704 21114 ft 422 kts 216°
2026-04-30 14:57 50.99885 6.07162 21764 ft 424 kts 208°
2026-04-30 14:58 50.94852 6.02175 22526 ft 428 kts 210°
2026-04-30 14:58 50.92292 5.99744 22859 ft 430 kts 208°
2026-04-30 14:58 50.87008 5.95216 23587 ft 433 kts 205°
2026-04-30 14:59 50.81618 5.90823 24178 ft 438 kts 205°
2026-04-30 15:00 50.73521 5.83933 25026 ft 443 kts 207°
2026-04-30 15:00 50.68097 5.79203 25581 ft 446 kts 206°
2026-04-30 15:01 50.62602 5.74575 26111 ft 448 kts 201°
2026-04-30 15:01 50.59664 5.72981 26371 ft 446 kts 189°
2026-04-30 15:01 50.53592 5.73219 26889 ft 437 kts 160°
2026-04-30 15:02 50.50771 5.74952 27241 ft 434 kts 154°
2026-04-30 15:02 50.48031 5.76782 27627 ft 433 kts 154°
2026-04-30 15:03 50.39771 5.82384 28772 ft 429 kts 154°
2026-04-30 15:03 50.34292 5.86077 29535 ft 427 kts 154°
2026-04-30 15:04 50.28833 5.89720 30317 ft 426 kts 154°
2026-04-30 15:04 50.20664 5.95011 31333 ft 422 kts 155°
2026-04-30 15:05 50.12506 6.00175 32232 ft 421 kts 154°
2026-04-30 15:06 50.07085 6.03626 32768 ft 420 kts 154°
2026-04-30 15:06 50.01711 6.07044 33254 ft 419 kts 154°
2026-04-30 15:07 49.96320 6.10459 33296 ft 417 kts 154°
2026-04-30 15:08 49.85574 6.17268 33284 ft 417 kts 154°
2026-04-30 15:09 49.72128 6.25712 33273 ft 417 kts 155°
2026-04-30 15:10 49.61360 6.32441 33275 ft 419 kts 154°
2026-04-30 15:11 49.45117 6.42616 33280 ft 420 kts 154°
2026-04-30 15:13 49.31606 6.51118 33276 ft 420 kts 154°
2026-04-30 15:14 49.12725 6.62897 33272 ft 419 kts 155°
2026-04-30 15:16 48.99003 6.70920 33274 ft 427 kts 166°
2026-04-30 15:17 48.87005 6.71166 33259 ft 433 kts 178°
2026-04-30 15:19 48.62905 6.70217 33235 ft 433 kts 178°